Regional Weather Roundup
Issued by NWS Jackson, KY

Home | Current Version | Previous Version | Text Only | Print | Product List | Glossary On
Versions: 1 2 3 4 5 6 7 8 9 10 11 12 13 14 15 16 17 18 19 20 21 22 23 24 25 26 27
000
ASUS43 KJKL 290210
RWRJKL

EAST KENTUCKY HOURLY WEATHER ROUNDUP
NATIONAL WEATHER SERVICE JACKSON KY
1000 PM EDT FRI APR 28 2017

NOTE: "FAIR" INDICATES FEW OR NO CLOUDS BELOW 12,000 FEET WITH
NO SIGNIFICANT WEATHER AND/OR OBSTRUCTIONS TO VISIBILITY.

* THESE REPORTS ARE NOT UNDER NWS QUALITY CONTROL AND MAY NOT
  REPORT WEATHER SUCH AS PRECIPITATION AND FOG.

KYZ079-080-083-085-087-088-110-112-115-119-120-290300
...EASTERN KENTUCKY...

CITY           SKY/WX    TMP DP  RH WIND       PRES   REMARKS
JACKSON        CLOUDY    75  59  57 CALM      29.98R
LONDON         CLOUDY    75  61  61 S6        29.98R
SOMERSET*      CLOUDY    73  61  64 S6        29.97R
MONTICELLO*    CLOUDY    77  65  66 VRB6      29.97R
WILLIAMSBURG*  CLEAR     75  64  69 S8        29.99R
MIDDLESBORO*   MOCLDY    69  66  89 CALM      30.03R
HARLAN APT*    CLEAR     73  61  64 CALM      30.04R
PIKE CO APT*   CLOUDY    77  58  51 S5        30.00R
BIG SANDY APT* CLOUDY    77  57  50 CALM      29.99R
MOREHEAD APT*  CLOUDY    75  59  57 S14G21    29.93F
$$

KYZ035-036-041-042-044-050-067-078-099-290300
...CENTRAL KENTUCKY...

CITY           SKY/WX    TMP DP  RH WIND       PRES   REMARKS
MT STERLING*   CLOUDY    73  61  64 SW10      29.93S
FLEMING/MASON* CLOUDY    73  58  59 S8        29.90S
DANVILLE*      MOCLDY    72  63  73 S8        29.93S
LEXINGTON      MOCLDY    75  62  64 S13       29.91S
FRANKFORT      MOCLDY    76  61  59 S7        29.88R
LOUISVILLE     CLOUDY    75  66  73 S6        29.85R
LEBANON*         N/A     75  64  69 S10       29.90S
GLASGOW*       CLOUDY    76  65  68 S7        29.90R
BOWLING GREEN  MOCLDY    78  68  71 S8        29.88R
$$

KYZ091>093-OHZ055-061-077-WVZ005-015-034-035-042-290300
...SOUTHERN OHIO/WEST VIRGINIA...

CITY           SKY/WX    TMP DP  RH WIND       PRES   REMARKS
COVINGTON      TSTM      62  60  93 N46G53    29.80F
COLUMBUS       TSTM      58  55  90 E14G43    29.94F FOG
DAYTON         TSTM      57  56  96 E8G20     29.93S
WILMINGTON     TSTM      58  58 100 NE15G22   29.91R FOG
HUNTINGTON     CLOUDY    76  56  49 S7        29.93R
CHARLESTON     CLOUDY    73  54  51 SW9       29.97R
PINEVILLE*     CLOUDY    68  55  64 MISG      30.08R
BECKLEY        CLOUDY    72  57  59 S12       30.06R
BLUEFIELD      CLEAR     70  57  63 S9G17     30.09R
LOGAN CO APT*  CLOUDY    79  46  31 SW7       30.01R
$$

VAZ002-007-008-TNZ017-027-036-066-071-290300
...SOUTHWEST VIRGINIA/EAST TENNESSEE...

CITY           SKY/WX    TMP DP  RH WIND       PRES   REMARKS
WISE*          CLEAR     70  55  60 SW8       30.11R
JONESVILLE*      N/A     68  64  88 CALM      30.06R
ABINGDON*      CLEAR     74  61  63 W5        30.09R
BRISTOL        CLEAR     74  60  61 CALM      30.06R
MORRISTOWN*    PTCLDY    73  66  78 SW5       30.03R
SEVIERVILLE*   CLEAR     72  64  78 CALM      30.01R
KNOXVILLE      PTCLDY    75  63  66 SW9       30.01R
LAFOLLETTE*    CLOUDY    77  64  65 S5        30.04R
OAK RIDGE      CLOUDY    78  64  61 S3        30.02R
CROSSVILLE     CLEAR     73  63  70 VRB6      30.05R
NASHVILLE      PTCLDY    76  67  73 S9        29.91R
$$

...KEY TO REMARKS...
VSB - VISIBILITY IN MILES
WCI - WIND CHILL INDEX
HX  - HEAT INDEX

$$




USA.gov is the U.S. government's official web portal to all federal, state and local government web resources and services.